Погода в Тикси

Погода в Тикси : погода сейчас, прогноз погоды и архив. Всё, что Вы хотите узнать о погоде в Тикси!

Хотите узнать прогноз погоды в Тикси? Тогда Вам сюда: Погода в Тикси

Поиск расширенной информации на нашем сайте:

Другие новости

Новости СМИ2

Главная страница сайта

Новости сайта

02.10.2013

Напоминаем, что на нашем новом сайте вы можете получить высокодетализированные прогнозы погоды по пунктам России, СНГ и мира (включающие важные для авиации метеовеличины, такие как направление и скорость ветра, видимость, явления погоды, количество и форма облачности, нижняя и верхняя граница облачности), а также ознакомиться с разнообразными материалами по авиационной метеорологии и подборкой полезных ссылок на эту тему.

Сайт Метеоцентр.Азия посвящён разработке технологий оптимизации авиаметеорологического обслуживания, включая проектирование и перспективное создание нескольких автоматизированных авиаметеорологических систем:
- система выпуска высокодетальных прогностических карт явлений погоды для нижнего воздушного пространства по России и ближнему зарубежью;
- система верификации прогнозов TAF (выпускаемых синоптиками официальных АМСГ РФ и ближнего зарубежья) и AUTOTAF (выпускаемых сайтом Метеоцентр.Азия) - выявление ошибок, онлайн-сопоставление с фактической погодой METAR, автоматическое внесение коррективов в прогнозы при резком отклонении фактической погоды от прогноза, подсчёт оправдываемости прогнозов по элементам и в целом;
- система обработки, анализа и отображения авиаметеорологической информации для применения провайдерами метеорологической информации.


Погода в Тикси - сегодня

Время (UTC), дата Ветер
(°,м/с) 
Видим.   Явления Облачность Т
(°С)
Тd
(°С)
f(%) Тe
(°С)
Pmin
(гПа)
dP
(гПа)
Po
(мм)
O2
(г/м3)
Тmin Tmax R s Состояние
почвы
00 15.01.17 180 (Ю) 10-11{12}  20000 м  позёмок  8/0 средняя, верхняя 
[Ac trans|Ci fib]
-22.9 -26.1 75 -33  1039.8  0.2  779  345           
03 15.01.17 220 (ЮЗ) 8-10{12}  20000 м  позёмок  8/0 верхняя 
[Ci fib]
-21.7 -25.9 69 -31  1039.9  0.1  779  343           
06 15.01.17 190 (Ю) 7{10}  20000 м  позёмок  9/0 средняя, верхняя 
[Ac trans|Ci fib]
-21 -25.5 67 -29  1039.1  -0.8  779  342           
09 15.01.17 220 (ЮЗ) 20000 м  позёмок  9/0 средняя, верхняя 
[Ac trans|Ci fib]
-21.3 -26.2 65 -29  1039.8  0.7  779  342           
12 15.01.17 220 (ЮЗ) 20000 м  позёмок  6/0 средняя, верхняя 
[Ac trans|Ci fib]
-21.9 -25.9 70 -30  1040  0.2  779  343    -20.5       
15 15.01.17 220 (ЮЗ) 20000 м  позёмок  8/0 средняя, верхняя 
[Ac trans|Ci fib]
-22 -26.3 68 -30  1039.6  -0.4  779  343           
18 15.01.17 220 (ЮЗ) 20000 м  позёмок  6/0 верхняя 
[Ci fib]
-21.5 -26.2 66 -29  1039.6  779  343           
21 15.01.17 230 (ЮЗ) 20000 м    4/0 верхняя 
[Ci fib]
-22 -26.7 66 -28  1038.8  -0.8  778  343           
00 16.01.17 220 (ЮЗ) 20000 м    3/0 верхняя 
[Ci fib]
-23.5 -27.3 71 -30  1038.7  -0.1  778  345  -25.3      14  неравномерный
сухой снег
100% 
03 16.01.17 190 (Ю) 20000 м    ясно 
-21.2 -26.2 64 -26  1037.8  -0.9  778  342           
06 16.01.17 220 (ЮЗ) 20000 м  позёмок  ясно 
-21.2 -26.6 62 -28  1036.5  -1.3  777  341           
09 16.01.17 200 (Ю) 20000 м    ясно 
-25.6 -29.2 72 -26  1035.6  -0.9  776  347           
12 16.01.17 220 (ЮЗ) 20000 м    ясно 
-26.5 -29.8 74 -32  1034.9  -0.7  775  348    -20.6       
15 16.01.17 240 (ЮЗ) 20000 м    ясно 
-27.2 -30.2 76 -28  1033.3  -1.6  774  348           
18 16.01.17 230 (ЮЗ) 20000 м    ясно 
-27.2 -30.6 73 -32  1032.2  -1.1  773  348           
21 16.01.17 240 (ЮЗ) 20000 м    ясно 
-26.2 -29.9 71 -33  1031.2  -1  773  346           
00 17.01.17 230 (ЮЗ) 20000 м    1/0 
-24.2 -28.6 67 -29  1030.5  -0.7  772  343  -29.6      11  неравномерный
сухой снег
100% 
03 17.01.17 230 (ЮЗ) 20000 м  позёмок  4/0 верхняя 
[Ci fib]
-25.1 -29.2 69 -34  1030  -0.5  772  344           
06 17.01.17 230 (ЮЗ) 4{10}  20000 м    4/0 верхняя 
[Ci fib]
-25.4 -29.4 69 -32  1029.1  -0.9  771  344           
09 17.01.17 230 (ЮЗ) 20000 м  позёмок  4/0 верхняя 
[Ci fib]
-23.6 -27.7 69 -32  1028.4  -0.7  771  342           
12 17.01.17 230 (ЮЗ) 20000 м  позёмок  4/0 верхняя 
[Ci fib]
-25.4 -29.4 69 -34  1027.8  -0.6  770  344    -21.9       
15 17.01.17 230 (ЮЗ) 8-10{12}  20000 м  позёмок  4/0 верхняя 
[Ci fib]
-26.5 -30.2 71 -36  1027.1  -0.7  770  345           
18 17.01.17 190 (Ю) 13-15{17}  20000 м  позёмок  3/0 верхняя 
[Ci fib]
-26.5 -29.3 77 -39  1025.6  -1.5  768  345           
21 17.01.17 190 (Ю) 12-15{15}  2000 м    6/0 средняя, верхняя 
[Ac trans|Ci fib]
-26 -29.6 72 -38  1025.2  -0.4             
00 18.01.17 190 (Ю) 15-17{18}  1000 м  метель  8/0 средняя, верхняя 
[Ac trans|Ci fib]
-26 -28.3 81 -39  1023.6  -1.6  767  343  -27.3         
Время (UTC), дата Ветер
(°,м/с) 
Видим.   Явления Облачность Т
(°С)
Тd
(°С)
f(%) Тe
(°С)
Pmin
(гПа)
dP
(гПа)
Po
(мм)
O2
(г/м3)
Тmin Tmax R s Состояние
почвы

Для получения пояснительной информации подведите курсор к названию столбца.

ПОГОДА в Тикси - архив

Всё, что Вы хотите узнать о погоде в Тикси - удобно и подробно!

Выберите нужную дату (начиная с 1 января 2015* года) и нажмите кнопку "Найти".
Будут отображены архивные сводки погоды по пункту Тикси, начиная с указанной даты.


Отображать данные в формате CSV (для использования в таблицах Excel)


Внимание! Наш архив погоды предназначен исключительно для личного некоммерческого использования в познавательных целях. Если Вам необходимы официальные справки о состоянии погоды (для производственных, юридических, коммерческих и т.п. целей), обращайтесь в органы Росгидромета.

*Примечание: данная дата относится к архиву по метеостанциям СССР (Россия, СНГ, Балтия).
Архив по метеостанциям Зарубежной Европы и Азии (кроме Китая) хранится 10 дней, по другим регионам земного шара (Китай, Африка, Америка, Австралия, Океания) - 1 день.

Тикси - район местоположения метеостанции


Название, широта, долгота, высота метеостанции:
Тикси (посёлок) 71.6°ш. 128.9°д. 7 м над ур. моря [Российская Федерация]

Дополнительная информация

В oтличие oт бoльшинства пoгoдных сайтoв мы публикуем пoдрoбную метеoинфoрмацию в детальнoм прoфессиoнальнoм фoрмате.

Характеристики температуры и влажнoсти вoздуха измеряются на высoте 2 м в тени вдали oт зданий и деревьев.
Скoрoсть ветра измеряется на высoте 10 м (на урoвне рoста челoвека скoрoсть ветра ниже в 1.5-2 раза). Если метеoстанция нахoдится в гoрoде или в лесу, тo скoрoсть ветра занижена на 2-4 м/с пo сравнению с oткрытым местoм. Скoрoсть ветра над акватoриями крупных рек и oзёр, а также на вершинах хoлмoв на 2-5 м/с выше, чем в oбычных услoвиях.
Атмoсфернoе давление в разных тoчках местнoсти мoжет значительнo oтличаться oт давления на метеoстанции, в зависимoсти oт услoвий рельефа (при пoдъёме на 10 м давление пoнижается примернo на 1 мм рт.ст.).